Location: Eurasberg
(48.3353°N, 11.0839°E)
Time: 10:25:54
(UTC+00:00)

GEOS 3 Rocket - Pass Details

Date: 18 January 2026
Orbit: 768 x 845 km, 115.0° (Epoch: 11 February)

Event Time Altitude Azimuth Distance (km) Brightness Sun altitude
Rises 04:53:23 0° 134° (SE) 3,310 7.7 -20.5°
Reaches altitude 10° 04:55:38 10° 133° (SE) 2,393 6.8 -20.1°
Maximum altitude 05:00:51 81° 48° (NE) 840 3.7 -19.3°
Enters shadow 05:04:16 23° 323° (NW) 1,699 4.9 -18.7°
